Location: Muenchen
(48.1800°N, 11.5800°E)
Time: 04:46:39
(UTC+01:00)

Tiros 1 - Visible Passes

Search period start: 24 November 2014 00:00
Search period end: 04 December 2014 00:00
Orbit: 632 x 667 km, 48.4° (Epoch: 23 November)

Date Brightness Start Highest point End Pass type
(mag) Time Alt. Az. Time Alt. Az. Time Alt. Az.
25 Nov 10.2 17:04:37 10° WSW 17:07:17 15° SW 17:09:56 10° S visible
02 Dec 10.2 06:37:17 10° SSE 06:39:51 14° SE 06:42:24 10° ESE visible
03 Dec 9.5 07:02:18 10° SSW 07:06:21 27° SE 07:10:23 10° E visible
